Zurück zum Katalog

STARLINK-36547

AktivKommunikationVLEO
NORAD 67520·PAYLOAD·🇺🇸 United States

Gestartet Jan 18, 2026 von Cape Canaveral Space Force Station

Loading…

Nächste Überflüge (nächste 24 Stunden)

TLE

AktuellSource: CelesTrak SupGP

Epoche: Sep 14, 2026, 22:57 UTC

1 67520C 26012AD  26257.95673611 -.00009531  00000+0 -34523-3 0  2577
2 67520  43.0035 325.2734 0001478 272.2074 336.5869 15.27582122    13

Verfolge STARLINK-36547 in Echtzeit mit AllMySat

Download on the App Store